Location: Marcé
(47.5801°N, 0.3280°W)
Time: 09:47:30
(UTC+01:00)

BlueWalker 3 - Pass Details

Date: 08 December 2022
Orbit: 499 x 517 km, 53.2° (Epoch: 29 January)

Event Time Altitude Azimuth Distance (km) Brightness Sun altitude
Rises 18:21:16 0° 297° (WNW) 2,634 6.3 -11.5°
Reaches altitude 10° 18:23:31 10° 301° (WNW) 1,742 5.2 -11.8°
Maximum altitude 18:27:24 58° 21° (NNE) 603 2.1 -12.4°
Enters shadow 18:30:10 18° 97° (E) 1,305 3.5 -12.9°
